Le nostre stazioni meteo in Italia

Pubblicità
Il mio iltempo24.it
Ferrara, Italia (16138): Temperatura & dewpoint: 21.05.2018 03:00:00 - 27.05.2018 03:00:00 (CEST)Ferrara, Italia (16138): velocità del vento: 21.05.2018 03:00:00 - 27.05.2018 03:00:00 (CEST)Ferrara, Italia (16138): direzione del vento: 21.05.2018 03:00:00 - 27.05.2018 03:00:00 (CEST)Ferrara, Italia (16138): reduced air pressure: 21.05.2018 03:00:00 - 27.05.2018 03:00:00 (CEST)Ferrara, Italia (16138): visibility: 21.05.2018 03:00:00 - 27.05.2018 03:00:00 (CEST)
Data & Tempo tt [°C] td [°C] ff [km/h] ff [kn] dd ppp [hPa] vv [km]
27.05.2018 03:00:00 - - - - - - -
27.05.2018 02:00:00 - - - - - - -
27.05.2018 01:00:00 - - - - - - -
27.05.2018 00:00:00 - - - - - - -
26.05.2018 23:00:00 - - - - - - -
26.05.2018 22:00:00 - - - - - - -
26.05.2018 21:00:00 - - - - - - -
26.05.2018 20:00:00 27,2 19,6 4 2 SE 1017,9 15
26.05.2018 19:00:00 29,0 19,0 8 4 ESE - 10
26.05.2018 18:00:00 30,0 18,0 4 2 O - 10
26.05.2018 17:00:00 30,6 18,7 5 3 S 1018,2 15
26.05.2018 16:00:00 31,0 18,0 5 3 NE - 10
26.05.2018 15:00:00 31,0 20,0 4 2 NNE - 10
26.05.2018 14:00:00 30,2 19,6 5 3 SE 1019,2 15
26.05.2018 13:00:00 29,0 20,0 4 2 SSE - 10
26.05.2018 12:00:00 28,0 20,0 0 0 N - 10
26.05.2018 11:00:00 26,6 20,2 0 0 N 1019,2 12
26.05.2018 10:00:00 25,0 19,0 0 0 N - 10
26.05.2018 09:00:00 23,0 19,0 - - - - 10
26.05.2018 08:00:00 21,6 17,8 0 0 N 1019,1 12
26.05.2018 07:00:00 - - - - - - -
26.05.2018 06:00:00 - - - - - - -
26.05.2018 05:00:00 - - - - - - -
26.05.2018 04:00:00 - - - - - - -
26.05.2018 03:00:00 - - - - - - -
26.05.2018 02:00:00 - - - - - - -
26.05.2018 01:00:00 - - - - - - -
26.05.2018 00:00:00 - - - - - - -
25.05.2018 23:00:00 - - - - - - -
25.05.2018 22:00:00 - - - - - - -
25.05.2018 21:00:00 - - - - - - -
25.05.2018 20:00:00 28,4 16,7 0 0 N 1014,0 15
25.05.2018 19:00:00 29,0 17,0 0 0 N - 10
25.05.2018 18:00:00 30,0 18,0 5 3 O - 10
25.05.2018 17:00:00 30,4 18,2 5 3 O 1014,2 10
25.05.2018 16:00:00 30,0 18,0 4 2 N - 10
25.05.2018 15:00:00 30,0 18,0 5 3 O - 10
25.05.2018 14:00:00 29,6 19,0 8 4 OSO 1015,2 10
25.05.2018 13:00:00 30,0 20,0 5 3 ONO - 10
25.05.2018 12:00:00 28,0 20,0 5 3 S - 8
25.05.2018 11:00:00 25,6 19,7 4 2 NO 1015,6 8
25.05.2018 10:00:00 23,0 19,0 4 2 O - 8
25.05.2018 09:00:00 21,0 18,0 - - - - 8
25.05.2018 08:00:00 19,2 17,4 0 0 N 1015,6 10
25.05.2018 07:00:00 - - - - - - -
25.05.2018 06:00:00 - - - - - - -
25.05.2018 05:00:00 - - - - - - -
25.05.2018 04:00:00 - - - - - - -
25.05.2018 03:00:00 - - - - - - -
25.05.2018 02:00:00 - - - - - - -
25.05.2018 01:00:00 - - - - - - -
25.05.2018 00:00:00 - - - - - - -
24.05.2018 23:00:00 - - - - - - -
24.05.2018 22:00:00 - - - - - - -
24.05.2018 21:00:00 - - - - - - -
24.05.2018 20:00:00 26,4 16,4 5 3 NNO 1014,3 15
24.05.2018 19:00:00 28,0 17,0 8 4 NNO - 10
24.05.2018 18:00:00 28,0 16,0 8 4 O - 10
24.05.2018 17:00:00 29,0 16,9 4 2 SO 1014,5 15
24.05.2018 16:00:00 28,0 16,0 5 3 ESE - 10
24.05.2018 15:00:00 29,0 18,0 4 2 OSO - 10
24.05.2018 14:00:00 27,0 17,5 5 3 NO 1016,3 12
24.05.2018 13:00:00 27,0 18,0 4 2 NNE - 10
24.05.2018 12:00:00 26,0 18,0 4 2 O - 10
24.05.2018 11:00:00 25,0 18,2 4 2 NNO 1016,8 12
24.05.2018 10:00:00 24,0 19,0 5 3 O - 10
24.05.2018 09:00:00 20,0 16,0 - - - - 10
24.05.2018 08:00:00 17,6 15,2 0 0 N 1016,8 12
24.05.2018 07:00:00 - - - - - - -
24.05.2018 06:00:00 - - - - - - -
24.05.2018 05:00:00 - - - - - - -
24.05.2018 04:00:00 - - - - - - -
24.05.2018 03:00:00 - - - - - - -
24.05.2018 02:00:00 - - - - - - -
24.05.2018 01:00:00 - - - - - - -
24.05.2018 00:00:00 - - - - - - -
23.05.2018 23:00:00 - - - - - - -
23.05.2018 22:00:00 - - - - - - -
23.05.2018 21:00:00 - - - - - - -
23.05.2018 20:00:00 24,4 17,2 0 0 N 1015,4 15
23.05.2018 19:00:00 24,0 17,0 0 0 N - 10
23.05.2018 18:00:00 24,0 17,0 0 0 N - 10
23.05.2018 17:00:00 24,0 17,5 0 0 N 1015,7 12
23.05.2018 16:00:00 23,0 18,0 0 0 N - 10
23.05.2018 15:00:00 21,0 17,0 0 0 N - 10
23.05.2018 14:00:00 20,0 15,7 5 3 E 1016,7 10
23.05.2018 13:00:00 23,0 18,0 4 2 NNE - 5
23.05.2018 12:00:00 22,0 18,0 0 0 N - 4,0
23.05.2018 11:00:00 22,0 18,0 5 3 NO 1016,3 3,0
23.05.2018 10:00:00 20,0 17,0 4 2 NNO - 2,5
23.05.2018 09:00:00 18,0 16,0 0 0 N - 1,5
23.05.2018 08:00:00 17,2 15,7 0 0 N 1015,9 0,9
23.05.2018 07:00:00 - - - - - - -
23.05.2018 06:00:00 - - - - - - -
23.05.2018 05:00:00 - - - - - - -
23.05.2018 04:00:00 - - - - - - -
23.05.2018 03:00:00 - - - - - - -
23.05.2018 02:00:00 - - - - - - -
23.05.2018 01:00:00 - - - - - - -
23.05.2018 00:00:00 - - - - - - -
22.05.2018 23:00:00 - - - - - - -
22.05.2018 22:00:00 - - - - - - -
22.05.2018 21:00:00 - - - - - - -
22.05.2018 20:00:00 19,4 17,4 0 0 N 1013,8 10
22.05.2018 19:00:00 20,0 18,0 - - - - 10
22.05.2018 18:00:00 21,0 18,0 0 0 N - 10
22.05.2018 17:00:00 22,0 18,0 4 2 SSO 1013,8 12
22.05.2018 16:00:00 22,0 18,0 4 2 NE - 10
22.05.2018 15:00:00 22,0 18,0 0 0 N - 10
22.05.2018 14:00:00 22,0 18,8 4 2 ESE 1013,7 10
22.05.2018 13:00:00 20,0 17,0 5 3 S - 10
22.05.2018 12:00:00 18,0 16,0 - - - - 10
22.05.2018 11:00:00 17,0 15,7 0 0 N 1013,6 8
22.05.2018 10:00:00 17,0 16,0 - - - - 1,2
22.05.2018 09:00:00 17,0 15,0 - - - - 3,0
22.05.2018 08:00:00 16,2 15,2 0 0 N 1012,7 4,0
22.05.2018 07:00:00 - - - - - - -
22.05.2018 06:00:00 - - - - - - -
22.05.2018 05:00:00 - - - - - - -
22.05.2018 04:00:00 - - - - - - -
22.05.2018 03:00:00 - - - - - - -
22.05.2018 02:00:00 - - - - - - -
22.05.2018 01:00:00 - - - - - - -
22.05.2018 00:00:00 - - - - - - -
21.05.2018 23:00:00 - - - - - - -
21.05.2018 22:00:00 - - - - - - -
21.05.2018 21:00:00 - - - - - - -
21.05.2018 20:00:00 24,0 14,1 5 3 SE 1012,1 10
21.05.2018 19:00:00 24,0 14,0 9 5 SSE - 10
21.05.2018 18:00:00 25,0 13,0 13 7 SSE - 10
21.05.2018 17:00:00 28,6 14,1 9 5 O 1012,2 10
21.05.2018 16:00:00 29,0 14,0 11 6 SO - 10
21.05.2018 15:00:00 29,0 14,0 5 3 OSO - 10
21.05.2018 14:00:00 28,8 15,4 9 5 O 1013,9 15
21.05.2018 13:00:00 29,0 16,0 9 5 O - 10
21.05.2018 12:00:00 28,0 17,0 8 4 NNE - 10
21.05.2018 11:00:00 26,4 17,5 5 3 ENE 1014,7 15
21.05.2018 10:00:00 24,0 17,0 4 2 OSO - 10
21.05.2018 09:00:00 21,0 16,0 - - - - 10
21.05.2018 08:00:00 18,8 15,3 0 0 N 1014,7 15
21.05.2018 07:00:00 - - - - - - -
21.05.2018 06:00:00 - - - - - - -
21.05.2018 05:00:00 - - - - - - -
21.05.2018 04:00:00 - - - - - - -
21.05.2018 03:00:00 - - - - - - -

tt = Temperatura
td = dewpoint
ff = velocità del vento
dd = direzione del vento
ppp = reduced air pressure
vv = visibility

Stazioni seguenti

WeatherPro
AMSI
MeteoEarth